Sioux City, IA

3:08 PM CST on December 11, 2017 (GMT -0600)
Sioux Gateway

Weather History for KSUX - December, 2014

Change the Weather History Date:

Sunday, December 7, 2014

  Actual Average Record
Temperature  
Mean Temperature 35 °F 25 °F  
Max Temperature 39 °F 34 °F 68 °F (1984)
Min Temperature 30 °F 15 °F -11 °F (1976)
Degree Days  
Heating Degree Days 30 40  
Month to date heating degree days 254 274  
Since 1 July heating degree days 1749 1750  
Cooling Degree Days 0 0  
Month to date cooling degree days 0 0  
Year to date cooling degree days 862 869  
Moisture  
Dew Point 32 °F    
Average Humidity 85    
Maximum Humidity 92    
Minimum Humidity 78    
Precipitation  
Precipitation T in 0.03 in 0.74 in (1926)
Month to date precipitation T 0.22  
Year to date precipitation 39.96 27.16  
Snow  
Snow 0.00 in 0.30 in 5.00 in (1926)
Month to date snowfall 0.0 1.8  
Since 1 July snowfall 4.5 7.2  
Snow Depth 0.00 in    
Sea Level Pressure  
Sea Level Pressure 30.27 in    
Wind  
Wind Speed 12 mph (South)    
Max Wind Speed 22 mph    
Max Gust Speed 28 mph    
Visibility 5 miles    
Events Rain    
T = Trace of Precipitation, MM = Missing Value Source: NWS Daily Summary

Daily Weather History Graph

Daily Weather History Graph

Search for Another Location

Airport or City:

Trip Planner

Search our weather history database for the weather conditions in past years. The results will help you decide how hot, cold, wet, or windy it might be!

Date:

Astronomy

Dec. 07, 2014 Rise Set
Actual Time 7:41 AM CST 4:52 PM CST
Civil Twilight 7:09 AM CST 5:24 PM CST
Nautical Twilight 6:34 AM CST 5:59 PM CST
Astronomical Twilight 6:00 AM CST 6:33 PM CST
Moon 6:23 PM CST (12/7) 8:24 AM CST (12/7)
Length of Visible Light 10h 14m
Length of Day
9h 11m
Full, 98% of the Moon is Illuminated
Dec 7
Full
Dec 14
Last Quarter
Dec 21
New
Dec 28
First Quarter
Jan 4
Full

Hourly Weather History & Observations

Time (CST) Temp. Windchill Dew Point Humidity Pressure Visibility Wind Dir Wind Speed Gust Speed Precip Events Conditions
12:52 AM 30.9 °F 21.2 °F 27.0 °F 85% 30.49 in 5.0 mi SSE 12.7 mph - N/A   Clear
1:19 AM 30.0 °F 21.7 °F 26.1 °F 85% 30.45 in 5.0 mi SSE 9.2 mph - N/A   Scattered Clouds
1:28 AM 30.0 °F 21.1 °F 27.0 °F 88% 30.44 in 5.0 mi SE 10.4 mph - N/A   Mostly Cloudy
1:52 AM 30.9 °F 22.2 °F 27.0 °F 85% 30.47 in 5.0 mi SSE 10.4 mph - N/A   Overcast
2:52 AM 32.0 °F 22.5 °F 28.0 °F 85% 30.46 in 4.0 mi South 12.7 mph - N/A   Overcast
3:52 AM 32.0 °F 22.5 °F 28.9 °F 88% 30.44 in 4.0 mi South 12.7 mph - N/A   Overcast
4:52 AM 32.0 °F 23.6 °F 30.0 °F 92% 30.40 in 3.0 mi SSE 10.4 mph - N/A   Overcast
5:27 AM 33.1 °F 23.9 °F 30.9 °F 92% 30.37 in 2.5 mi South 12.7 mph - N/A   Overcast
5:50 AM 33.8 °F 23.9 °F 30.2 °F 87% 30.35 in 3.0 mi South 15.0 mph - N/A   Overcast
5:52 AM 33.1 °F 22.6 °F 30.9 °F 92% 30.39 in 3.0 mi South 16.1 mph - N/A   Overcast
6:52 AM 33.1 °F 23.9 °F 30.9 °F 92% 30.37 in 4.0 mi South 12.7 mph - N/A   Overcast
7:52 AM 33.1 °F 22.6 °F 30.9 °F 92% 30.36 in 4.0 mi South 16.1 mph 24.2 mph N/A   Overcast
8:45 AM 34.0 °F 23.4 °F 30.9 °F 89% 30.29 in 5.0 mi South 17.3 mph - N/A   Overcast
8:52 AM 34.0 °F 23.8 °F 30.9 °F 89% 30.33 in 4.0 mi South 16.1 mph - N/A   Overcast
9:11 AM 34.0 °F 23.4 °F 30.9 °F 89% 30.29 in 7.0 mi South 17.3 mph - N/A   Overcast
9:44 AM 34.0 °F 23.4 °F 32.0 °F 92% 30.29 in 5.0 mi South 17.3 mph 24.2 mph N/A   Overcast
9:52 AM 35.1 °F 24.1 °F 32.0 °F 89% 30.33 in 5.0 mi South 19.6 mph 25.3 mph N/A   Overcast
10:52 AM 35.6 °F 25.9 °F 32.0 °F 87% 30.29 in 7.0 mi South 16.1 mph - N/A   Overcast
11:52 AM 35.1 °F 25.5 °F 32.0 °F 89% 30.29 in 4.0 mi South 15.0 mph - N/A   Overcast
12:39 PM 36.0 °F 26.3 °F 33.1 °F 89% 30.22 in 2.0 mi South 16.1 mph - N/A   Overcast
12:49 PM 35.6 °F 25.2 °F 33.8 °F 93% 30.22 in 1.8 mi South 18.4 mph - 0.00 in Rain Light Rain
12:52 PM 36.0 °F 25.6 °F 33.1 °F 89% 30.25 in 1.8 mi South 18.4 mph - 0.00 in Rain Light Rain
1:12 PM 36.0 °F 25.6 °F 34.0 °F 93% 30.20 in 2.0 mi South 18.4 mph - 0.00 in Rain Light Rain
1:25 PM 36.0 °F 27.5 °F 34.0 °F 93% 30.20 in 3.0 mi South 12.7 mph 21.9 mph 0.00 in Rain Light Rain
1:33 PM 36.0 °F 26.7 °F 34.0 °F 93% 30.20 in 2.5 mi South 15.0 mph - 0.00 in   Overcast
1:50 PM 35.6 °F 27.1 °F 33.8 °F 93% 30.19 in 3.0 mi South 12.7 mph - 0.00 in   Overcast
1:52 PM 36.0 °F 28.5 °F 34.0 °F 93% 30.22 in 3.0 mi South 10.4 mph - 0.00 in   Overcast
2:21 PM 36.0 °F 27.1 °F 34.0 °F 93% 30.18 in 2.5 mi South 13.8 mph - N/A   Overcast
2:38 PM 36.0 °F 26.3 °F 34.0 °F 93% 30.17 in 3.0 mi South 16.1 mph - N/A   Overcast
2:52 PM 37.0 °F 28.5 °F 34.0 °F 89% 30.20 in 3.0 mi South 13.8 mph - N/A   Overcast
3:52 PM 37.0 °F 29.8 °F 35.1 °F 93% 30.20 in 5.0 mi South 10.4 mph - N/A   Overcast
4:52 PM 37.0 °F 29.8 °F 35.1 °F 93% 30.19 in 5.0 mi South 10.4 mph - N/A   Overcast
5:52 PM 37.9 °F 30.9 °F 36.0 °F 93% 30.18 in 9.0 mi South 10.4 mph - N/A   Overcast
6:52 PM 39.0 °F 33.4 °F 36.0 °F 89% 30.18 in 10.0 mi South 8.1 mph - N/A   Overcast
7:52 PM 39.0 °F 32.3 °F 36.0 °F 89% 30.16 in 9.0 mi South 10.4 mph - N/A   Overcast
8:52 PM 37.9 °F 31.5 °F 36.0 °F 93% 30.15 in 8.0 mi SSW 9.2 mph - N/A   Overcast
9:52 PM 37.0 °F 31.0 °F 35.1 °F 93% 30.13 in 8.0 mi South 8.1 mph - N/A   Scattered Clouds
10:52 PM 35.1 °F 29.3 °F 32.0 °F 89% 30.14 in 7.0 mi SW 6.9 mph - N/A   Clear
11:52 PM 32.0 °F 26.4 °F 30.9 °F 96% 30.14 in 9.0 mi SSW 5.8 mph - N/A   Clear